OBJECT-B - Orbit

View from above orbital plane
View from above orbital plane
View from above satellite
View from above satellite

Ground track
Ground track

The orbit data is extracted from the following two-line orbital elements,

1 33374U 08044B   13137.89825220  .00001858  00000-0  48629-3 0  3434
2 33374 049.4535 245.0282 5474281 274.1644 300.9937 04.82707119 81632
Epoch (UTC): 17 May 2013 21:33:28
Eccentricity: 0.5474281
inclination: 49.4535°
perigee height: 315 km
apogee height: 16507 km
right ascension of ascending node: 245.0282°
argument of perigee: 274.1644°
revolutions per day: 4.82707119
mean anomaly at epoch: 300.9937°
orbit number at epoch: 8163

The dashed part of the orbit path shows where the satellite is in the earth's shadow,  

Developed and maintained by Chris Peat, Heavens-Above GmbH. Please read the updated FAQ before sending e-mail. Imprint. DLR